Regional Weather Roundup
Issued by NWS

Home | Current Version | Previous Version | Text Only | Print | Product List | Glossary Off
Versions: 1 2 3 4 5 6 7 8 9 10 11 12 13 14 15 16 17 18 19 20 21 22 23 24 25 26 27 28 29 30 31 32 33 34 35 36 37 38 39 40 41 42 43 44 45 46 47 48 49 50

000
ASUS45 KSLC 211610
RWRUT

UTAH REGIONAL WEATHER ROUNDUP
NATIONAL WEATHER SERVICE SALT LAKE CITY UT
900 AM MST SUN DEC 21 2014

UTZ001>011-023>025-211700-

NORTHERN UTAH

CITY           SKY/WX    TMP DP  RH WIND       PRES   REMARKS
BRIGHAM CITY   CLOUDY    42  37  83 S14       29.95R
HILL AFB       MIX PCPN  37  37  99 S17       29.97R WCI  27
LOGAN          LGT RAIN  40  36  86 SE3       29.90R
OGDEN          LGT RAIN  38  37  97 S15       29.97R FOG     WCI  29
PROVO AIRPORT  CLOUDY    37  34  87 E6        30.03F WCI  33
SALT LAKE CITY LGT RAIN  39  35  86 S20G26    29.97F WCI  29
VERNAL         CLOUDY    30  27  88 CALM      29.95F FOG
WENDOVER       CLOUDY    39  34  81 N6        29.96R WCI  35
HEBER CITY     MIX PCPN  32  32 100 CALM      29.96F
WEST JORDAN    CLOUDY    36  36 100 S18G24    29.98F WCI  25

$$

UTZ012>022-026-027-211700-

SOUTHERN/CENTRAL UTAH

CITY           SKY/WX    TMP DP  RH WIND       PRES   REMARKS
BLANDING       CLOUDY    29  29 100 CALM      30.12F VSB 1
BRYCE CANYON   CLOUDY    37  26  64 W13       30.08F WCI  29
CEDAR CITY     CLOUDY    34  29  82 W8        30.09F WCI  27
DELTA          CLOUDY    37  31  79 S13       30.04S WCI  29
MILFORD        PTSUNNY   39  30  70 SW17      30.06S WCI  30
MOAB/CYNLANDS  CLOUDY    35  33  92 N3        30.07R
PRICE          LGT SNOW  31  26  82 CALM      30.03S
ST GEORGE      CLOUDY    36  28  75 NW6       30.18R WCI  31
KANAB          CLOUDY    32  32 100 NE3       30.16R

$$

REGIONAL REPORTS     COLORADO/ARIZONA

CITY           SKY/WX    TMP DP  RH WIND       PRES   REMARKS
CRAIG, CO      LGT SNOW  34  29  82 SW16      29.88R VSB 3/4 WCI  24
GRAND JUNCTION LGT SNOW  31  31 100 SW3       30.06R FOG
RIFLE          SNOW      31  29  92 CALM      30.02R VSB 1/2
MONTROSE       CLOUDY    31  27  85 CALM      30.02F
CORTEZ         SUNNY     31  28  89 CALM      30.06F
PAGE, AZ       PTSUNNY   37  29  72 CALM      30.10R
GRAND CANYON   PTSUNNY   27  25  92 CALM      30.13F
KINGMAN        CLOUDY    36  33  89 CALM      30.14R
FLAGSTAFF      SUNNY     39  24  55 SW7       30.12S WCI  34

$$

REGIONAL REPORTS    NEVADA/IDAHO/WYOMING

CITY           SKY/WX    TMP DP  RH WIND       PRES   REMARKS
LAS VEGAS, NV  CLOUDY    46  37  71 W5        30.12R
ELY            CLOUDY    37  35  92 SE3       30.13S
ELKO           CLOUDY    44  38  79 CALM      30.05R
POCATELLO, ID  MOCLDY    43  42  97 SW24G31   29.81S
BURLEY         CLOUDY    47  41  80 W21G31    29.84R
EVANSTON, WY   LGT SNOW  32  32 100 SW25G35   29.88R FOG     WCI  19
ROCK SPRINGS   CLOUDY    33  29  85 W17       29.79F WCI  22
KEMMERER       SNOW      32  32 100 SW28G35   29.82R VSB 1/2 WCI  18

$$



USA.gov is the U.S. government's official web portal to all federal, state and local government web resources and services.